| time (UTC) | temp F | wind direction | speed MPH | gust MPH | rain 1hr in | rain 24hr in | rain mn in | humidity % | barometer mb |
| 20260504174445 | 61 | 308 | 8.0 | 16.0 | 0.00 | 0.00 | 0.00 | 38 | 999.5 |
| 20260504173942 | 61 | 317 | 6.0 | 14.0 | 0.00 | 0.00 | 0.00 | 39 | 999.5 |
| 20260504173438 | 62 | 247 | 6.0 | 9.0 | 0.00 | 0.00 | 0.00 | 40 | 999.4 |
| 20260504172936 | 62 | 288 | 7.0 | 11.0 | 0.00 | 0.00 | 0.00 | 40 | 999.5 |
| 20260504172432 | 62 | 31 | 4.0 | 9.0 | 0.00 | 0.00 | 0.00 | 40 | 999.3 |
| 20260504171928 | 62 | 323 | 5.0 | 10.0 | 0.00 | 0.00 | 0.00 | 40 | 999.5 |
| 20260504171426 | 62 | 312 | 5.0 | 8.0 | 0.00 | 0.00 | 0.00 | 40 | 999.2 |
| 20260504170923 | 62 | 336 | 6.0 | 7.0 | 0.00 | 0.00 | 0.00 | 40 | 999.2 |
| 20260504170419 | 61 | 287 | 7.0 | 10.0 | 0.00 | 0.00 | 0.00 | 39 | 999.2 |
| 20260504160338 | 61 | 312 | 9.0 | 13.0 | 0.00 | 0.00 | 0.00 | 41 | 999.2 |
| 20260504150802 | 61 | 305 | 5.0 | 7.0 | 0.00 | 0.00 | 0.00 | 41 | 998.9 |
| 20260504150259 | 61 | 317 | 5.0 | 9.0 | 0.00 | 0.00 | 0.00 | 42 | 998.9 |
| 20260504141229 | 61 | 297 | 9.0 | 14.0 | 0.00 | 0.00 | 0.00 | 41 | 998.7 |
| 20260504140726 | 60 | 337 | 5.0 | 8.0 | 0.00 | 0.00 | 0.00 | 44 | 998.6 |
| 20260504140221 | 60 | 349 | 5.0 | 10.0 | 0.00 | 0.00 | 0.00 | 43 | 998.5 |
| 20260504130650 | 60 | 257 | 4.0 | 7.0 | 0.00 | 0.00 | 0.00 | 48 | 997.2 |
| 20260504130146 | 60 | 268 | 6.0 | 8.0 | 0.00 | 0.00 | 0.00 | 48 | 997.5 |
| 20260504120110 | 59 | 243 | 6.0 | 10.0 | 0.00 | 0.00 | 0.00 | 46 | 997.0 |
| 20260504110537 | 59 | 294 | 9.0 | 16.0 | 0.00 | 0.00 | 0.00 | 43 | 996.3 |
| 20260504100448 | 57 | 239 | 2.0 | 6.0 | 0.00 | 0.00 | 0.00 | 46 | 996.8 |
| 20260504081841 | 57 | 208 | 3.0 | 5.0 | 0.00 | 0.00 | 0.00 | 45 | 998.6 |
| 20260504081338 | 56 | 213 | 2.0 | 3.0 | 0.00 | 0.00 | 0.00 | 45 | 998.7 |
| 20260504080834 | 56 | 210 | 1.0 | 2.0 | 0.00 | 0.00 | 0.00 | 46 | 998.9 |
| 20260504080331 | 56 | 219 | 2.0 | 3.0 | 0.00 | 0.00 | 0.00 | 45 | 998.9 |
| 20260504070258 | 55 | 208 | 2.0 | 5.0 | 0.00 | 0.00 | 0.00 | 47 | 999.7 |
| 20260504060219 | 51 | 203 | 0.0 | 0.0 | 0.00 | 0.00 | 0.00 | 55 | 1001.0 |
| 20260504050646 | 53 | 204 | 0.0 | 0.0 | 0.00 | 0.00 | 0.00 | 52 | 1002.0 |
| 20260504050143 | 52 | 205 | 0.0 | 0.0 | 0.00 | 0.00 | 0.00 | 53 | 1002.1 |
| 20260504045641 | 53 | 204 | 0.0 | 0.0 | 0.00 | 0.00 | 0.00 | 55 | 1002.2 |
| 20260504045141 | 53 | 204 | 0.0 | 0.0 | 0.00 | 0.00 | 0.00 | 51 | 1002.2 |
| 20260504044639 | 52 | 204 | 0.0 | 1.0 | 0.00 | 0.00 | 0.00 | 53 | 1002.4 |
| 20260504044135 | 53 | 204 | 1.0 | 1.0 | 0.00 | 0.00 | 0.00 | 52 | 1002.3 |
| 20260504043632 | 52 | 204 | 0.0 | 0.0 | 0.00 | 0.00 | 0.00 | 53 | 1002.4 |
| 20260504043130 | 52 | 204 | 0.0 | 0.0 | 0.00 | 0.00 | 0.00 | 55 | 1002.7 |
| 20260504042627 | 52 | 204 | 0.0 | 0.0 | 0.00 | 0.00 | 0.00 | 55 | 1002.7 |
| 20260504042123 | 52 | 204 | 0.0 | 0.0 | 0.00 | 0.00 | 0.00 | 54 | 1002.9 |
| 20260504041619 | 53 | 204 | 0.0 | 0.0 | 0.00 | 0.00 | 0.00 | 54 | 1002.9 |
| 20260504041116 | 53 | 204 | 0.0 | 0.0 | 0.00 | 0.00 | 0.00 | 52 | 1002.9 |
| 20260504040613 | 53 | 204 | 0.0 | 0.0 | 0.00 | 0.00 | 0.00 | 52 | 1003.1 |
| 20260504040109 | 53 | 204 | 0.0 | 0.0 | 0.00 | 0.00 | 0.00 | 54 | 1003.3 |
| 20260504035606 | 53 | 204 | 0.0 | 0.0 | 0.00 | 0.00 | 0.00 | 52 | 1003.3 |
| 20260504035103 | 53 | 204 | 0.0 | 0.0 | 0.00 | 0.00 | 0.00 | 53 | 1003.4 |
| 20260504034601 | 53 | 204 | 0.0 | 0.0 | 0.00 | 0.00 | 0.00 | 52 | 1003.5 |
| 20260504034057 | 54 | 204 | 0.0 | 0.0 | 0.00 | 0.00 | 0.00 | 51 | 1003.7 |
| 20260504033555 | 54 | 204 | 0.0 | 0.0 | 0.00 | 0.00 | 0.00 | 51 | 1003.7 |
| 20260504033052 | 54 | 204 | 0.0 | 0.0 | 0.00 | 0.00 | 0.00 | 50 | 1003.9 |
| 20260504032549 | 55 | 204 | 0.0 | 0.0 | 0.00 | 0.00 | 0.00 | 49 | 1003.7 |
| 20260504032046 | 55 | 204 | 0.0 | 0.0 | 0.00 | 0.00 | 0.00 | 48 | 1003.9 |
| 20260504031543 | 55 | 203 | 0.0 | 0.0 | 0.00 | 0.00 | 0.00 | 48 | 1004.1 |
| 20260504031039 | 55 | 203 | 0.0 | 0.0 | 0.00 | 0.00 | 0.00 | 47 | 1003.9 |
| 20260504030537 | 55 | 203 | 0.0 | 0.0 | 0.00 | 0.00 | 0.00 | 47 | 1003.8 |
| 20260504030032 | 56 | 203 | 0.0 | 0.0 | 0.00 | 0.00 | 0.00 | 46 | 1004.1 |
| 20260504025530 | 57 | 204 | 0.0 | 0.0 | 0.00 | 0.00 | 0.00 | 45 | 1003.9 |
| 20260504025026 | 57 | 204 | 0.0 | 0.0 | 0.00 | 0.00 | 0.00 | 43 | 1004.0 |
| 20260504024524 | 57 | 203 | 0.0 | 0.0 | 0.00 | 0.00 | 0.00 | 43 | 1003.9 |
| 20260504024020 | 57 | 203 | 0.0 | 0.0 | 0.00 | 0.00 | 0.00 | 42 | 1003.9 |
| 20260504023517 | 58 | 203 | 0.0 | 0.0 | 0.00 | 0.00 | 0.00 | 42 | 1004.0 |
| 20260504023013 | 58 | 203 | 0.0 | 0.0 | 0.00 | 0.00 | 0.00 | 42 | 1004.2 |
| 20260504022509 | 59 | 203 | 0.0 | 0.0 | 0.00 | 0.00 | 0.00 | 40 | 1004.1 |
| 20260504022006 | 59 | 203 | 0.0 | 0.0 | 0.00 | 0.00 | 0.00 | 40 | 1004.2 |
| 20260504021504 | 60 | 203 | 0.0 | 0.0 | 0.00 | 0.00 | 0.00 | 40 | 1004.1 |
| 20260504021000 | 61 | 203 | 0.0 | 0.0 | 0.00 | 0.00 | 0.00 | 37 | 1004.4 |
| 20260504020456 | 62 | 203 | 0.0 | 0.0 | 0.00 | 0.00 | 0.00 | 35 | 1004.2 |
| 20260504015953 | 63 | 203 | 0.0 | 0.0 | 0.00 | 0.00 | 0.00 | 33 | 1004.2 |
| 20260504015449 | 64 | 202 | 0.0 | 0.0 | 0.00 | 0.00 | 0.00 | 32 | 1004.0 |
| 20260504014945 | 64 | 203 | 0.0 | 2.0 | 0.00 | 0.00 | 0.00 | 32 | 1004.1 |
| 20260504014442 | 64 | 206 | 0.0 | 1.0 | 0.00 | 0.00 | 0.00 | 31 | 1004.1 |
| 20260504013938 | 64 | 206 | 1.0 | 2.0 | 0.00 | 0.00 | 0.00 | 31 | 1004.3 |
| 20260504013437 | 65 | 201 | 0.0 | 0.0 | 0.00 | 0.00 | 0.00 | 30 | 1004.3 |
| 20260504012933 | 65 | 203 | 0.0 | 2.0 | 0.00 | 0.00 | 0.00 | 30 | 1004.3 |
| 20260504012431 | 66 | 215 | 1.0 | 2.0 | 0.00 | 0.00 | 0.00 | 29 | 1004.4 |
| 20260504011929 | 66 | 226 | 2.0 | 3.0 | 0.00 | 0.00 | 0.00 | 29 | 1004.4 |
| 20260504011425 | 66 | 205 | 2.0 | 7.0 | 0.00 | 0.00 | 0.00 | 28 | 1004.5 |
| 20260504010921 | 67 | 217 | 3.0 | 6.0 | 0.00 | 0.00 | 0.00 | 29 | 1004.4 |
| 20260504010417 | 67 | 230 | 1.0 | 2.0 | 0.00 | 0.00 | 0.00 | 29 | 1004.4 |
| 20260504005913 | 67 | 211 | 2.0 | 2.0 | 0.00 | 0.00 | 0.00 | 28 | 1004.5 |
| 20260504005410 | 67 | 214 | 2.0 | 3.0 | 0.00 | 0.00 | 0.00 | 28 | 1004.6 |
| 20260504004908 | 67 | 213 | 3.0 | 3.0 | 0.00 | 0.00 | 0.00 | 28 | 1004.4 |
| 20260504004405 | 68 | 223 | 2.0 | 2.0 | 0.00 | 0.00 | 0.00 | 28 | 1004.7 |
| 20260504003902 | 68 | 257 | 3.0 | 5.0 | 0.00 | 0.00 | 0.00 | 28 | 1004.6 |
| 20260504003358 | 68 | 201 | 1.0 | 5.0 | 0.00 | 0.00 | 0.00 | 27 | 1004.3 |
| 20260504002855 | 68 | 216 | 1.0 | 2.0 | 0.00 | 0.00 | 0.00 | 27 | 1004.4 |
| 20260504002352 | 68 | 238 | 3.0 | 7.0 | 0.00 | 0.00 | 0.00 | 26 | 1004.6 |
| 20260504001850 | 68 | 209 | 1.0 | 2.0 | 0.00 | 0.00 | 0.00 | 28 | 1004.6 |
| 20260504001347 | 69 | 238 | 3.0 | 3.0 | 0.00 | 0.00 | 0.00 | 26 | 1004.6 |
| 20260504000843 | 69 | 235 | 5.0 | 7.0 | 0.00 | 0.00 | 0.00 | 26 | 1004.5 |
| 20260504000341 | 69 | 285 | 2.0 | 3.0 | 0.00 | 0.00 | 0.00 | 27 | 1004.6 |
| 20260503235838 | 69 | 266 | 4.0 | 6.0 | 0.00 | 0.00 | 0.00 | 27 | 1004.6 |
| 20260503235336 | 69 | 193 | 1.0 | 7.0 | 0.00 | 0.00 | 0.00 | 27 | 1004.5 |
| 20260503234833 | 69 | 262 | 6.0 | 8.0 | 0.00 | 0.00 | 0.00 | 26 | 1004.6 |
| 20260503234330 | 69 | 257 | 2.0 | 5.0 | 0.00 | 0.00 | 0.00 | 27 | 1004.5 |
| 20260503233828 | 70 | 226 | 2.0 | 2.0 | 0.00 | 0.00 | 0.00 | 27 | 1004.6 |
| 20260503233324 | 70 | 265 | 3.0 | 5.0 | 0.00 | 0.00 | 0.00 | 27 | 1004.7 |
| 20260503232820 | 69 | 252 | 1.0 | 2.0 | 0.00 | 0.00 | 0.00 | 26 | 1004.6 |
| 20260503232318 | 69 | 237 | 1.0 | 2.0 | 0.00 | 0.00 | 0.00 | 26 | 1004.8 |
| 20260503231816 | 69 | 272 | 5.0 | 7.0 | 0.00 | 0.00 | 0.00 | 25 | 1005.1 |
| 20260503231313 | 69 | 326 | 5.0 | 6.0 | 0.00 | 0.00 | 0.00 | 26 | 1005.0 |
| 20260503230808 | 69 | 283 | 3.0 | 6.0 | 0.00 | 0.00 | 0.00 | 26 | 1005.0 |
| 20260503230306 | 70 | 219 | 0.0 | 5.0 | 0.00 | 0.00 | 0.00 | 26 | 1005.1 |
| 20260503225803 | 69 | 291 | 3.0 | 7.0 | 0.00 | 0.00 | 0.00 | 26 | 1005.1 |
| 20260503225258 | 70 | 202 | 1.0 | 9.0 | 0.00 | 0.00 | 0.00 | 25 | 1005.1 |
| 20260503224755 | 69 | 317 | 3.0 | 3.0 | 0.00 | 0.00 | 0.00 | 26 | 1005.1 |
| 20260503224253 | 70 | 5 | 4.0 | 7.0 | 0.00 | 0.00 | 0.00 | 26 | 1005.2 |
| 20260503223750 | 70 | 250 | 3.0 | 5.0 | 0.00 | 0.00 | 0.00 | 25 | 1005.1 |
| 20260503223248 | 70 | 266 | 3.0 | 7.0 | 0.00 | 0.00 | 0.00 | 25 | 1005.2 |
| 20260503222744 | 71 | 354 | 3.0 | 7.0 | 0.00 | 0.00 | 0.00 | 25 | 1005.2 |
| 20260503222242 | 70 | 260 | 3.0 | 8.0 | 0.00 | 0.00 | 0.00 | 26 | 1005.2 |
| 20260503221740 | 71 | 271 | 3.0 | 6.0 | 0.00 | 0.00 | 0.00 | 25 | 1005.1 |
| 20260503221238 | 71 | 231 | 4.0 | 6.0 | 0.00 | 0.00 | 0.00 | 24 | 1005.3 |
| 20260503220734 | 71 | 281 | 3.0 | 5.0 | 0.00 | 0.00 | 0.00 | 26 | 1005.4 |
| 20260503220231 | 71 | 335 | 3.0 | 6.0 | 0.00 | 0.00 | 0.00 | 25 | 1005.2 |
| 20260503215727 | 70 | 157 | 2.0 | 5.0 | 0.00 | 0.00 | 0.00 | 26 | 1005.4 |
| 20260503215225 | 70 | 206 | 1.0 | 9.0 | 0.00 | 0.00 | 0.00 | 24 | 1005.7 |
| 20260503214723 | 70 | 321 | 4.0 | 6.0 | 0.00 | 0.00 | 0.00 | 26 | 1005.2 |
| 20260503214219 | 70 | 278 | 6.0 | 11.0 | 0.00 | 0.00 | 0.00 | 26 | 1005.6 |
| 20260503213717 | 71 | 288 | 3.0 | 5.0 | 0.00 | 0.00 | 0.00 | 26 | 1005.6 |
| 20260503213214 | 70 | 322 | 5.0 | 9.0 | 0.00 | 0.00 | 0.00 | 27 | 1005.6 |
| 20260503212711 | 71 | 260 | 3.0 | 5.0 | 0.00 | 0.00 | 0.00 | 27 | 1005.7 |
| 20260503212209 | 71 | 319 | 4.0 | 10.0 | 0.00 | 0.00 | 0.00 | 28 | 1005.6 |
| 20260503211706 | 71 | 347 | 5.0 | 7.0 | 0.00 | 0.00 | 0.00 | 27 | 1005.8 |
| 20260503211202 | 71 | 304 | 3.0 | 6.0 | 0.00 | 0.00 | 0.00 | 27 | 1005.9 |
| 20260503210658 | 70 | 307 | 3.0 | 7.0 | 0.00 | 0.00 | 0.00 | 29 | 1005.8 |
| 20260503210155 | 70 | 319 | 5.0 | 9.0 | 0.00 | 0.00 | 0.00 | 28 | 1005.8 |
| 20260503205650 | 71 | 315 | 4.0 | 6.0 | 0.00 | 0.00 | 0.00 | 28 | 1005.8 |
| 20260503205147 | 71 | 227 | 7.0 | 10.0 | 0.00 | 0.00 | 0.00 | 27 | 1005.9 |
| 20260503204643 | 71 | 256 | 2.0 | 6.0 | 0.00 | 0.00 | 0.00 | 29 | 1005.9 |
| 20260503204141 | 70 | 204 | 3.0 | 7.0 | 0.00 | 0.00 | 0.00 | 28 | 1005.9 |
| 20260503203638 | 70 | 320 | 5.0 | 8.0 | 0.00 | 0.00 | 0.00 | 29 | 1006.2 |
| 20260503203136 | 70 | 234 | 2.0 | 6.0 | 0.00 | 0.00 | 0.00 | 29 | 1005.9 |
| 20260503202633 | 71 | 340 | 6.0 | 8.0 | 0.00 | 0.00 | 0.00 | 29 | 1006.3 |
| 20260503202131 | 70 | 339 | 6.0 | 7.0 | 0.00 | 0.00 | 0.00 | 30 | 1006.0 |
| 20260503201629 | 70 | 234 | 4.0 | 11.0 | 0.00 | 0.00 | 0.00 | 29 | 1006.2 |
| 20260503201126 | 70 | 222 | 1.0 | 8.0 | 0.00 | 0.00 | 0.00 | 29 | 1006.2 |
| 20260503200622 | 70 | 200 | 1.0 | 6.0 | 0.00 | 0.00 | 0.00 | 28 | 1006.4 |
| 20260503200119 | 71 | 293 | 5.0 | 6.0 | 0.00 | 0.00 | 0.00 | 28 | 1006.3 |
| 20260503195616 | 70 | 274 | 2.0 | 7.0 | 0.00 | 0.00 | 0.00 | 27 | 1006.4 |
| 20260503195112 | 70 | 265 | 3.0 | 3.0 | 0.00 | 0.00 | 0.00 | 28 | 1006.6 |
| 20260503194610 | 69 | 284 | 3.0 | 7.0 | 0.00 | 0.00 | 0.00 | 31 | 1006.6 |
| 20260503194104 | 70 | 345 | 7.0 | 13.0 | 0.00 | 0.00 | 0.00 | 28 | 1006.5 |
| 20260503193601 | 69 | 327 | 4.0 | 7.0 | 0.00 | 0.00 | 0.00 | 29 | 1006.7 |
| 20260503193056 | 69 | 253 | 4.0 | 8.0 | 0.00 | 0.00 | 0.00 | 27 | 1006.7 |
| 20260503192553 | 69 | 296 | 5.0 | 8.0 | 0.00 | 0.00 | 0.00 | 27 | 1006.6 |
| 20260503192049 | 69 | 64 | 5.0 | 7.0 | 0.00 | 0.00 | 0.00 | 27 | 1006.7 |
| 20260503191546 | 68 | 334 | 7.0 | 9.0 | 0.00 | 0.00 | 0.00 | 27 | 1006.7 |
| 20260503191043 | 70 | 329 | 5.0 | 9.0 | 0.00 | 0.00 | 0.00 | 28 | 1006.7 |
| 20260503190539 | 68 | 203 | 2.0 | 7.0 | 0.00 | 0.00 | 0.00 | 29 | 1006.6 |
| 20260503190036 | 68 | 321 | 4.0 | 11.0 | 0.00 | 0.00 | 0.00 | 29 | 1006.7 |
| 20260503185533 | 68 | 311 | 6.0 | 8.0 | 0.00 | 0.00 | 0.00 | 30 | 1006.7 |
| 20260503185027 | 68 | 359 | 5.0 | 7.0 | 0.00 | 0.00 | 0.00 | 30 | 1006.7 |
| 20260503184523 | 69 | 318 | 3.0 | 5.0 | 0.00 | 0.00 | 0.00 | 31 | 1006.7 |
| 20260503184020 | 68 | 305 | 4.0 | 9.0 | 0.00 | 0.00 | 0.00 | 31 | 1006.6 |
| 20260503183517 | 69 | 221 | 1.0 | 7.0 | 0.00 | 0.00 | 0.00 | 33 | 1006.6 |
| 20260503183014 | 70 | 205 | 2.0 | 8.0 | 0.00 | 0.00 | 0.00 | 33 | 1007.0 |
| 20260503182512 | 70 | 255 | 3.0 | 6.0 | 0.00 | 0.00 | 0.00 | 35 | 1006.9 |
| 20260503182010 | 69 | 196 | 3.0 | 7.0 | 0.00 | 0.00 | 0.00 | 31 | 1006.8 |
| 20260503181507 | 68 | 276 | 5.0 | 6.0 | 0.00 | 0.00 | 0.00 | 34 | 1007.0 |
| 20260503181003 | 68 | 262 | 5.0 | 8.0 | 0.00 | 0.00 | 0.00 | 34 | 1007.0 |
| 20260503180500 | 67 | 344 | 3.0 | 9.0 | 0.00 | 0.00 | 0.00 | 36 | 1006.9 |
| 20260503175957 | 68 | 344 | 5.0 | 10.0 | 0.00 | 0.00 | 0.00 | 35 | 1006.9 |
| 20260503175455 | 69 | 30 | 6.0 | 7.0 | 0.00 | 0.00 | 0.00 | 34 | 1006.9 |
| 20260503174951 | 68 | 293 | 3.0 | 6.0 | 0.00 | 0.00 | 0.00 | 34 | 1007.1 |